Location: Baia Mare
(47.6567°N, 23.5850°E)
Time: 14:13:27
(UTC+02:00)

ISS - Pass Details

Date: 27 September 2018
Orbit: 401 x 408 km, 51.6° (Epoch: 19 November)

Event Time Altitude Azimuth Distance (km) Brightness Sun altitude
Rises 21:43:29 0° 276° (W) 2,346 1.1 -25.2°
Reaches altitude 10° 21:45:39 10° 284° (WNW) 1,483 0.0 -25.6°
Enters shadow 21:47:35 28° 307° (NW) 814 -1.7 -25.8°
